Wind_Speed
33 37 41 46 51 56 60 64 67 70 72 75 76 73 66 57 50 48 50 53 54 56 58 59 61 62 62 62 62 60 59 57 56 54 53 51 49 47 46 44 42 40 38 36
33 38 42 48 54 59 63 66 68 71 73 77 76 71 63 55 50 50 52 56 58 60 62 64 64 62 60 58 57 55 54 53 52 51 49 47 46 46 45 44 42 40 39 36
37 41 45 51 57 62 65 67 70 72 74 78 76 69 61 54 52 53 56 59 62 64 65 64 61 58 55 53 52 52 52 51 51 49 47 45 43 42 42 42 41 40 38 36
40 44 49 54 59 64 67 68 71 73 76 78 75 67 57 53 53 55 59 62 64 64 61 57 53 52 52 52 53 54 55 54 53 51 48 45 42 39 38 38 39 38 37 37
41 46 51 56 62 66 69 69 72 74 77 77 72 62 55 54 55 58 61 63 63 59 54 51 51 51 52 53 55 56 57 57 55 53 49 45 41 37 35 34 35 37 37 37
43 48 54 59 64 68 70 70 73 74 76 75 70 61 56 55 57 60 62 61 57 52 49 49 50 51 53 55 57 58 58 58 56 53 50 45 41 36 33 31 30 33 36 38
45 50 56 61 66 69 68 70 72 74 75 73 65 58 57 57 59 61 60 56 51 48 47 48 50 53 55 57 59 60 60 59 57 54 50 46 42 38 33 29 27 28 32 36
48 53 58 62 66 68 68 69 71 73 74 69 61 56 57 58 60 60 56 51 47 46 47 49 52 55 57 59 60 62 62 60 57 54 50 46 42 39 35 31 27 25 26 31
48 53 58 63 66 67 68 68 70 73 72 65 58 55 57 58 59 57 52 47 45 46 48 51 54 57 59 61 62 63 62 60 57 53 50 47 43 40 37 33 28 25 23 25
50 55 60 64 67 67 67 67 70 72 69 61 56 56 57 58 57 53 48 45 45 47 49 53 55 58 60 62 63 63 62 60 58 54 51 48 46 42 38 34 30 26 23 22
50 56 61 64 66 66 65 67 70 70 65 59 55 56 57 58 55 49 45 44 45 48 51 54 56 59 61 63 64 62 61 61 60 58 54 50 46 44 40 35 31 27 23 21
51 57 62 64 65 64 65 67 68 68 62 57 55 56 57 56 51 46 43 44 46 49 52 54 56 59 62 64 63 60 60 61 62 61 59 55 49 44 40 37 32 28 25 22
52 58 62 64 64 63 63 66 67 66 60 56 55 56 56 53 48 44 43 44 47 50 52 53 56 59 62 63 61 59 60 61 63 64 63 59 54 46 39 34 32 28 24 22
53 58 62 63 63 62 63 65 66 63 58 55 55 55 54 50 45 42 43 45 47 50 51 53 56 59 62 63 61 58 58 59 61 63 65 64 59 51 42 34 28 26 23 21
53 58 61 62 61 61 62 64 64 61 57 54 54 54 52 47 43 41 42 45 47 49 50 52 55 59 62 63 60 58 58 58 59 62 65 67 65 58 48 37 29 23 20 18
53 57 60 61 60 60 61 63 63 59 55 53 53 53 50 44 41 41 43 45 46 47 48 51 54 58 61 62 60 57 57 59 61 62 63 66 67 65 56 44 33 24 19 16
53 57 59 60 59 59 61 62 61 57 54 52 52 52 47 42 40 41 44 46 46 47 48 50 53 57 60 62 61 58 57 59 61 61 62 63 66 67 63 54 42 30 22 17
53 56 59 59 58 58 60 60 59 55 52 51 51 50 45 40 38 40 42 44 45 46 47 49 51 55 59 61 60 60 60 59 59 60 60 62 64 66 66 63 55 43 32 24
53 56 58 58 57 58 59 58 56 53 50 49 49 47 42 38 37 38 40 42 43 43 44 46 49 53 56 58 60 62 61 59 58 58 59 60 61 63 64 64 63 57 48 37
54 57 58 57 56 56 57 56 54 51 48 48 48 45 40 36 36 37 40 42 43 43 42 44 47 51 54 56 59 60 61 60 58 57 57 59 60 61 61 62 62 61 59 54
55 57 57 55 55 55 55 55 52 49 47 46 46 43 38 34 34 36 38 41 42 42 41 42 45 48 52 55 57 58 59 60 59 58 58 58 59 59 59 59 59 59 58 57
55 56 55 54 53 53 53 53 50 46 45 44 44 41 36 32 32 33 36 38 40 40 40 41 43 46 50 53 54 55 57 59 60 60 60 59 59 58 57 57 56 56 55 55
54 54 53 52 51 51 52 50 47 44 43 43 42 39 34 31 30 32 34 36 38 39 40 40 41 43 47 50 52 52 54 56 58 59 61 61 61 60 59 57 56 55 54 53
53 53 51 50 50 50 49 48 45 42 40 41 41 38 33 29 28 29 31 34 36 38 39 39 40 41 43 46 48 50 51 53 55 57 59 60 61 62 61 60 59 57 56 54
51 51 49 48 48 48 47 46 43 40 39 39 39 37 32 28 26 27 29 31 33 35 37 38 39 39 40 42 44 47 49 51 52 54 55 57 58 60 60 60 60 60 59 57
49 48 47 47 46 46 45 44 40 38 37 37 37 36 31 27 25 25 26 28 30 33 35 36 37 38 38 39 41 43 45 47 50 51 53 54 55 56 57 58 59 59 59 59
47 46 45 45 45 44 43 41 38 36 35 36 36 34 31 26 23 23 24 26 28 30 31 33 35 36 37 38 38 40 42 44 46 48 50 51 52 53 54 55 56 57 57 57
Wind_Direction
330 331 334 334 332 332 332 332 332 333 334 335 336 336 334 330 327 328 330 330 330 328 327 326 324 323 321 320 319 318 316 314 311 306 302 297 292 288 285 282 280 278 277 276
329 330 334 333 333 334 334 333 333 334 335 336 337 336 335 332 329 329 330 330 330 329 328 327 327 327 327 327 327 326 325 322 319 315 309 302 294 287 281 278 276 274 272 270
329 331 335 336 335 335 334 334 334 335 335 337 339 338 337 334 332 332 332 331 331 330 330 330 332 334 336 337 338 337 335 333 330 326 321 313 304 293 282 275 271 269 267 265
329 332 337 336 335 335 335 335 335 336 337 338 339 340 338 335 335 334 333 333 332 332 333 336 339 341 342 342 342 341 340 339 337 333 328 323 316 306 292 279 269 263 261 259
331 333 334 335 336 336 336 336 336 336 338 339 340 340 339 338 337 336 335 334 334 337 339 342 343 344 345 344 344 344 343 341 339 337 333 329 323 315 305 291 276 263 256 253
330 333 335 335 335 336 335 336 336 337 338 340 341 341 341 340 338 337 336 337 339 342 344 346 347 347 347 346 345 344 343 342 341 340 338 335 331 325 316 302 287 271 258 251
331 334 334 335 335 335 335 336 336 338 339 341 342 342 341 340 339 338 338 340 343 345 347 348 349 349 349 348 346 345 344 343 342 341 341 339 337 333 328 317 301 283 266 254
332 335 334 335 334 334 335 336 337 338 341 342 343 342 342 341 340 339 340 343 346 348 349 349 350 350 349 348 347 346 345 344 343 341 340 340 339 337 333 328 316 299 279 262
332 333 333 334 334 334 335 336 337 339 342 343 343 343 342 342 341 341 343 346 348 349 350 350 350 350 350 349 349 348 347 347 346 344 341 339 337 335 333 329 323 312 296 275
332 333 334 333 333 334 335 336 338 341 343 343 343 343 343 343 342 343 346 348 349 351 351 352 351 351 351 351 351 351 351 351 350 348 344 340 336 332 329 326 322 316 307 292
330 332 333 333 333 334 335 337 339 342 343 344 344 344 344 344 344 346 348 350 351 352 353 353 353 353 353 353 354 355 355 356 355 352 349 345 339 333 328 324 320 314 307 298
329 331 332 332 333 334 336 337 340 343 345 345 344 345 345 346 347 348 350 352 353 353 353 354 354 355 355 355 356 357 358 359 359 358 354 350 346 339 332 325 320 314 307 299
329 331 331 332 333 335 336 338 341 344 345 345 345 346 347 347 349 351 352 353 353 354 354 355 356 357 357 357 358 359 360 1 2 1 359 356 351 345 338 328 320 314 306 298
328 330 330 331 333 335 336 339 342 345 346 346 346 347 348 349 351 353 354 354 354 355 356 357 358 359 359 360 360 360 0 1 3 4 4 3 359 353 346 337 326 316 307 298
327 329 330 331 333 335 337 340 344 346 347 346 347 348 350 351 353 354 355 356 356 357 358 359 0 1 2 2 2 2 2 3 4 5 6 7 6 3 358 350 340 327 315 303
328 329 331 332 334 335 337 341 345 347 347 347 348 349 351 352 354 355 357 358 358 359 0 1 3 4 4 4 5 4 4 5 6 7 8 10 11 10 8 4 357 348 336 321
328 330 332 333 334 335 338 342 345 347 347 347 349 351 352 353 355 357 358 359 360 1 3 4 5 5 6 7 7 7 8 9 10 9 10 12 14 16 17 16 13 9 3 353
330 332 333 333 334 336 339 343 345 347 347 348 350 352 353 355 357 358 359 360 1 3 3 5 5 6 9 9 9 11 12 12 11 12 14 16 18 20 23 24 25 24 21 17
331 333 333 333 334 337 340 343 346 347 347 348 351 352 353 355 357 359 1 2 3 4 5 5 6 9 10 10 12 15 16 15 14 14 16 19 22 24 26 29 31 34 34 32
332 333 333 333 334 337 340 343 346 347 347 348 351 353 354 354 357 359 1 3 5 5 6 6 8 11 12 12 15 17 19 19 18 17 19 22 24 26 28 30 33 36 39 41
331 332 332 332 334 336 339 343 345 346 347 349 351 353 354 354 357 359 2 4 5 6 6 7 10 12 14 16 17 18 20 21 21 22 23 25 26 27 28 30 33 35 38 41
330 330 330 331 333 336 339 343 345 346 346 348 351 353 353 353 356 359 2 5 6 7 8 9 10 13 17 18 19 20 22 23 24 25 27 28 28 29 29 31 32 34 36 38
328 328 328 329 332 335 339 343 345 345 346 348 351 352 352 352 355 359 1 4 6 8 9 11 12 14 18 20 20 21 22 24 25 26 28 30 31 31 31 32 33 34 35 36
326 326 327 328 331 334 339 342 344 344 344 347 350 352 351 351 352 356 359 2 5 8 10 12 13 15 17 20 21 21 23 24 25 27 28 30 32 33 33 33 34 35 35 36
323 324 325 327 330 334 338 341 342 342 343 346 349 351 350 348 350 353 356 360 4 8 11 13 15 15 16 18 20 21 23 25 26 26 28 29 31 33 33 34 35 35 36 37
321 321 323 325 328 332 337 339 340 340 341 344 347 349 348 346 347 349 352 356 2 6 10 13 15 17 17 18 19 21 23 25 26 26 27 28 30 32 33 34 35 35 36 37
318 319 321 324 327 331 335 338 338 338 339 343 345 347 346 344 343 345 348 353 359 4 8 11 14 17 18 18 18 19 20 22 24 25 27 28 29 31 33 34 35 35 36 36
Height
5807 5801 5796 5788 5778 5767 5755 5742 5729 5716 5701 5686 5671 5655 5640 5628 5617 5607 5597 5586 5574 5563 5552 5540 5528 5516 5504 5492 5481 5470 5460 5450 5442 5434 5427 5422 5418 5414 5412 5410 5408 5406 5405 5405
5803 5797 5791 5782 5771 5759 5747 5734 5720 5707 5692 5677 5661 5645 5632 5620 5610 5601 5590 5578 5566 5554 5541 5528 5516 5503 5491 5480 5468 5457 5446 5436 5426 5418 5410 5404 5399 5396 5394 5392 5391 5391 5391 5391
5797 5790 5784 5774 5762 5751 5739 5725 5711 5698 5685 5669 5654 5638 5624 5613 5603 5593 5582 5569 5556 5543 5530 5517 5504 5492 5480 5469 5458 5447 5437 5426 5415 5405 5396 5388 5382 5378 5375 5375 5375 5375 5376 5376
5790 5784 5775 5769 5755 5743 5730 5717 5702 5689 5674 5659 5644 5629 5616 5606 5596 5585 5574 5561 5547 5534 5521 5508 5496 5485 5474 5463 5452 5441 5429 5418 5407 5396 5385 5376 5369 5363 5359 5357 5358 5359 5360 5362
5784 5776 5769 5759 5747 5734 5722 5710 5696 5681 5667 5652 5637 5623 5612 5601 5589 5578 5565 5552 5538 5525 5513 5502 5491 5481 5470 5458 5447 5435 5423 5411 5399 5388 5376 5367 5358 5351 5346 5343 5342 5343 5345 5347
5778 5770 5761 5753 5740 5726 5714 5702 5688 5674 5660 5645 5630 5618 5607 5594 5583 5570 5556 5543 5530 5519 5508 5498 5488 5477 5466 5454 5442 5429 5417 5404 5392 5380 5368 5358 5349 5341 5335 5331 5328 5328 5329 5332
5772 5763 5754 5744 5731 5719 5707 5696 5680 5665 5651 5636 5622 5609 5598 5587 5575 5562 5549 5536 5525 5514 5505 5495 5485 5473 5461 5449 5436 5423 5410 5397 5384 5372 5361 5351 5341 5333 5327 5321 5318 5315 5315 5317
5765 5756 5749 5737 5724 5713 5701 5686 5673 5659 5644 5629 5615 5604 5593 5581 5569 5556 5544 5532 5522 5512 5502 5492 5481 5470 5458 5445 5432 5418 5404 5390 5377 5365 5354 5344 5335 5326 5319 5313 5309 5305 5304 5304
5761 5754 5743 5730 5718 5706 5693 5681 5667 5653 5639 5624 5612 5601 5589 5577 5565 5552 5540 5529 5519 5510 5500 5489 5478 5466 5454 5441 5427 5413 5398 5384 5371 5358 5347 5337 5329 5321 5313 5307 5301 5297 5294 5292
5755 5745 5736 5724 5712 5700 5687 5674 5661 5647 5633 5619 5608 5596 5585 5572 5560 5548 5537 5527 5518 5509 5498 5487 5476 5463 5450 5437 5422 5408 5394 5379 5366 5354 5342 5331 5320 5312 5305 5299 5293 5289 5285 5282
5749 5740 5730 5718 5706 5693 5681 5668 5655 5642 5628 5615 5603 5592 5581 5569 5556 5545 5535 5526 5517 5507 5496 5485 5473 5460 5447 5433 5419 5405 5391 5377 5363 5349 5337 5325 5314 5303 5295 5289 5283 5279 5276 5274
5744 5735 5724 5713 5700 5687 5675 5663 5650 5637 5623 5610 5600 5589 5577 5565 5553 5543 5534 5524 5515 5505 5494 5483 5471 5458 5445 5430 5416 5403 5389 5376 5361 5346 5332 5319 5307 5296 5285 5277 5272 5268 5266 5264
5738 5728 5717 5706 5694 5681 5670 5658 5645 5631 5618 5607 5596 5585 5573 5561 5550 5541 5532 5523 5513 5504 5493 5482 5470 5457 5444 5429 5415 5401 5388 5374 5360 5344 5329 5314 5300 5288 5279 5270 5262 5258 5255 5253
5731 5722 5711 5700 5688 5676 5664 5652 5639 5626 5614 5603 5593 5581 5570 5559 5549 5540 5531 5522 5513 5502 5492 5481 5469 5456 5443 5429 5415 5401 5388 5375 5361 5346 5330 5313 5296 5281 5269 5261 5254 5248 5245 5244
5725 5716 5705 5694 5682 5671 5659 5647 5634 5622 5610 5600 5589 5578 5567 5557 5548 5539 5531 5522 5512 5502 5492 5481 5470 5457 5443 5429 5416 5402 5389 5376 5362 5347 5330 5313 5295 5278 5264 5253 5245 5240 5237 5235
5719 5709 5699 5688 5677 5665 5654 5642 5630 5618 5607 5597 5587 5576 5565 5555 5547 5539 5531 5522 5513 5503 5493 5482 5470 5458 5445 5431 5417 5404 5391 5377 5362 5347 5332 5316 5299 5281 5264 5250 5240 5234 5231 5228
5712 5703 5692 5682 5671 5660 5649 5637 5626 5614 5604 5594 5584 5574 5563 5554 5545 5537 5528 5520 5511 5502 5492 5482 5471 5460 5447 5433 5420 5407 5393 5378 5365 5351 5337 5322 5306 5288 5270 5253 5241 5233 5228 5225
5705 5696 5686 5675 5664 5654 5643 5632 5621 5611 5601 5592 5582 5571 5561 5553 5545 5537 5529 5520 5511 5501 5493 5483 5473 5462 5449 5437 5424 5409 5394 5381 5369 5357 5343 5328 5312 5296 5280 5264 5249 5238 5231 5226
5698 5688 5679 5668 5658 5648 5638 5628 5617 5607 5598 5589 5580 5570 5561 5553 5546 5539 5531 5522 5513 5505 5496 5487 5477 5465 5453 5442 5428 5413 5400 5387 5376 5363 5350 5336 5322 5308 5293 5278 5264 5251 5240 5233
5690 5681 5672 5662 5652 5643 5634 5623 5613 5604 5595 5586 5577 5568 5559 5552 5545 5538 5531 5523 5515 5506 5498 5490 5480 5469 5458 5446 5433 5420 5407 5395 5383 5371 5358 5345 5331 5318 5305 5293 5280 5268 5257 5247
5683 5674 5665 5656 5647 5638 5629 5619 5610 5601 5592 5584 5575 5566 5558 5551 5545 5538 5531 5523 5516 5508 5500 5491 5482 5473 5462 5450 5438 5427 5415 5403 5392 5379 5366 5353 5341 5329 5317 5306 5294 5284 5274 5264
5676 5667 5658 5650 5642 5633 5624 5615 5606 5598 5590 5582 5573 5565 5558 5552 5545 5539 5532 5525 5518 5510 5502 5494 5485 5476 5465 5455 5444 5434 5423 5412 5401 5388 5375 5363 5351 5340 5328 5318 5307 5297 5288 5279
5668 5660 5652 5644 5637 5629 5620 5611 5603 5595 5587 5580 5572 5564 5557 5550 5544 5538 5533 5526 5519 5512 5504 5496 5487 5479 5469 5460 5451 5442 5431 5421 5410 5398 5386 5373 5362 5351 5340 5329 5319 5309 5300 5292
5661 5653 5646 5638 5631 5624 5616 5607 5599 5592 5585 5578 5570 5562 5556 5550 5544 5539 5533 5528 5521 5514 5506 5498 5490 5482 5474 5466 5458 5449 5439 5429 5418 5407 5396 5385 5373 5362 5352 5342 5332 5322 5313 5304
5653 5646 5639 5632 5626 5619 5611 5603 5596 5589 5582 5575 5568 5561 5554 5549 5544 5539 5534 5528 5522 5515 5508 5501 5493 5486 5478 5471 5463 5455 5446 5436 5426 5416 5407 5396 5385 5374 5364 5354 5345 5335 5326 5317
5645 5639 5633 5626 5620 5613 5606 5599 5592 5585 5579 5572 5566 5559 5553 5547 5543 5538 5534 5529 5523 5517 5511 5504 5497 5489 5482 5475 5467 5460 5452 5443 5434 5425 5416 5406 5396 5386 5376 5367 5358 5348 5339 5331
5637 5631 5626 5620 5614 5608 5601 5594 5588 5582 5576 5569 5563 5557 5551 5546 5542 5538 5534 5529 5524 5519 5513 5507 5500 5493 5486 5479 5471 5464 5457 5449 5441 5433 5424 5416 5407 5397 5388 5378 5370 5361 5352 5344